Terminal Aerodrome Forecast
Issued by NWS

Home | Current Version | Previous Version | Text Only | Print | Product List | Glossary On
Versions: 1 2 3 4 5 6 7 8 9 10 11 12 13 14 15 16 17 18 19 20 21 22 23 24 25 26 27 28
000
FTUS44 KHGX 211120
TAFLBX
TAF
KLBX 211120Z 2112/2212 05007KT P6SM SCT250
      TEMPO 2120/2124 09007KT
     FM221000 04002KT P6SM MIFG FEW250=

USA.gov is the U.S. government's official web portal to all federal, state and local government web resources and services.